Location: Unspecified
(35.6961°N, 0.0000°E)
Time: 09:15:22
(UTC+00:00)

UNISAT 6 - Pass Details

Date: 20 June 2019
Orbit: 607 x 689 km, 97.8° (Epoch: 17 July)

Event Time Altitude Azimuth Distance (km) Brightness Sun altitude
Rises 20:53:33 0° 12° (NNE) 2,882 ? -16.0°
Reaches altitude 10° 20:55:43 10° 12° (NNE) 1,980 ? -16.3°
Maximum altitude 21:00:02 88° 105° (ESE) 628 ? -16.9°
Enters shadow 21:03:24 17° 192° (SSW) 1,604 ? -17.4°
